[[{"header":{"parameterUnit":"m.s-1","parameterCategory":2,"la1":30.2991,"la2":30.254,"lo1":-89.0895,"lo2":-89.0444,"dy":0.0017,"dx":0.0017,"nx":28,"ny":28,"refTime":"2024-06-22T21:00:00:Z","depth":"0","parameterNumber":2,"parameterNumberName":"U-component_of_CURRENTS"},"data":[0,0,0,0,0,0,0,0,0,0,0,0,0,0,0,0,0,0,0,0,0,0,0,0,0,0,0,0,0,0,0,0,0,0,0,0,0,0,0,0,0,0,0,0,0,0,0,0,0,0,0,0,0,0,0,0,0,0,0.2433,0.2434,0,0.2558,0.2559,0.256,0.2606,0.2606,0.2606,0.2606,0.2667,0.2668,0.267,0,0,0,0,0,0,0,0,0,0,0,0,0,0.2203,0.2206,0.2432,0.2434,0.2436,0.2558,0.2559,0.256,0.2606,0.2606,0.2606,0.2606,0.2666,0.2668,0.267,0,0,0,0,0,0,0,0,0,0,0,0,0,0.2308,0.2208,0.2432,0.2477,0.2483,0.2557,0.2559,0.256,0.2606,0.2606,0.2606,0.2606,0.2666,0.2668,0.267,0.2685,0,0,0.2678,0.2679,0,0,0,0,0,0,0,0,0.2302,0.2316,0.2469,0.2474,0.2481,0.257,0.2501,0.2601,0.2606,0.2554,0.2606,0.2606,0.2631,0.2637,0.2655,0.2688,0.2691,0.2678,0.2679,0.268,0.2681,0,0,0,0,0,0,0,0.2295,0.2311,0.2477,0.2471,0.2478,0.2481,0.2496,0.2519,0.2586,0.2559,0.2564,0.2585,0.2634,0.2652,0.2656,0.2692,0.2678,0.268,0.2682,0.2682,0.2774,0.2775,0,0,0,0,0,0,0.2291,0.2305,0.2474,0.2482,0.2395,0.2486,0.2502,0.2538,0.2588,0.2597,0.2585,0.2587,0.2648,0.2653,0.2659,0.2723,0.268,0.2683,0.2684,0.2773,0.2775,0.2776,0,0,0,0,0,0,0.2286,0.2306,0.2469,0.2398,0.242,0.249,0.253,0.254,0.2564,0.2609,0.2616,0.2598,0.2648,0.2655,0.2692,0.2724,0.2684,0.2686,0.2772,0.2774,0.2775,0.2824,0,0,0,0,0,0,0.2279,0.2303,0.2319,0.2399,0.2424,0.2523,0.253,0.2543,0.2579,0.2582,0.2623,0.2629,0.2649,0.2689,0.2695,0.2726,0.2688,0.2771,0.2773,0.2775,0.2821,0.2826,0.2831,0,0,0,0,0,0.227,0.2301,0.232,0.234,0.2447,0.2525,0.2538,0.2583,0.2579,0.26,0.2625,0.2628,0.2705,0.2692,0.2699,0.2732,0.277,0.2772,0.2775,0.2818,0.2825,0.2831,0,0,0,0,0,0,0.2218,0.2312,0.2333,0.2393,0.2457,0.2535,0.2563,0.2582,0.2619,0.2615,0.2642,0.2651,0.2694,0.2701,0.2686,0.2762,0.2737,0.2741,0.2768,0.2775,0.278,0.281,0.269,0,0,0,0,0,0.2212,0.2259,0.2345,0.2394,0.2427,0.2489,0.2521,0.2551,0.2599,0.2615,0.2647,0.2675,0.2709,0.2731,0.2758,0.2799,0.2844,0.2823,0.2829,0.2833,0.2861,0.2965,0.2984,0.2783,0.2783,0.2783,0,0,0.2209,0.2265,0.2294,0.2385,0.2437,0.2495,0.2508,0.2564,0.2609,0.2614,0.2675,0.2692,0.2721,0.2774,0.2794,0.2786,0.2909,0.2836,0.284,0.2866,0.297,0.299,0.3007,0.2785,0.2784,0.2784,0,0,0.2233,0.2276,0.2324,0.2375,0.2454,0.2495,0.2509,0.2587,0.262,0.2674,0.2691,0.2737,0.2779,0.2828,0.2849,0.2899,0.293,0.2891,0.2954,0.3053,0.3072,0.3088,0.3157,0.3179,0.29,0.29,0.29,0,0.2229,0.2298,0.2349,0.2407,0.2454,0.2495,0.2553,0.2595,0.2672,0.2717,0.2697,0.2803,0.2816,0.2909,0.2925,0.2917,0.2965,0.2927,0.3064,0.3081,0.3098,0.3164,0.3189,0.2903,0.2902,0.2902,0.2902,0,0.2291,0.234,0.2374,0.2462,0.2515,0.2568,0.2639,0.2687,0.2715,0.2768,0.2857,0.2887,0.2963,0.2961,0.2958,0.3078,0.307,0.3055,0.3053,0.3122,0.3186,0.321,0.2906,0.2905,0.2905,0.2904,0,0,0.2308,0.24,0.2411,0.2453,0.2543,0.2597,0.2676,0.2778,0.2844,0.2898,0.3003,0.3052,0.3078,0.3105,0.3112,0.3187,0.3325,0.3171,0.3175,0.3249,0.3537,0.3511,0.3534,0.3338,0.3343,0.3347,0.353,0,0.2346,0.2437,0.248,0.2567,0.2624,0.2685,0.2761,0.285,0.292,0.3025,0.3082,0.3164,0.313,0.3166,0.3244,0.3311,0.3394,0.3276,0.3451,0.3457,0.3435,0.3564,0.3514,0.3673,0.3554,0.3558,0.3561,0,0.2394,0.2449,0.2529,0.2628,0.2661,0.2708,0.2844,0.2919,0.3065,0.3128,0.3234,0.3279,0.3409,0.3351,0.354,0.3468,0.3517,0.3553,0.3561,0.3545,0.3478,0.3588,0.3723,0.3672,0.3599,0.3596,0.3593,0,0.2377,0.2485,0.2539,0.2573,0.2689,0.2738,0.2806,0.2947,0.3042,0.32,0.3295,0.3431,0.3527,0.3617,0.3695,0.3638,0.3892,0.3823,0.3847,0.3843,0.3843,0.3832,0.3964,0.3971,0.3971,0.397,0.397,0,0.2396,0.244,0.2526,0.2554,0.2643,0.2726,0.2842,0.2936,0.3096,0.3217,0.3341,0.3468,0.3604,0.375,0.3779,0.3914,0.3976,0.3907,0.3917,0.3852,0.384,0.3826,0.3757,0.3977,0.3976,0.3974,0.3973,0,0.2357,0.2412,0.2479,0.2587,0.2629,0.2687,0.2854,0.2933,0.3097,0.3265,0.3325,0.3561,0.3753,0.3873,0.4047,0.4044,0.4054,0.4161,0.4061,0.4055,0.3985,0.3919,0.3863,0.3744,0.4228,0.4229,0.423,0,0.234,0.2367,0.248,0.2518,0.2556,0.2664,0.2735,0.291,0.2999,0.3303,0.3369,0.3642,0.381,0.4085,0.4158,0.427,0.4111,0.4246,0.4123,0.4028,0.3964,0.3727,0.3612,0.4137,0.4136,0.4136,0.4136,0,0.2301,0.233,0.2378,0.2461,0.2523,0.2622,0.2729,0.2814,0.3016,0.3195,0.3423,0.3599,0.391,0.4052,0.4223,0.4259,0.4069,0.4244,0.4205,0.3971,0.367,0.3544,0.3938,0.4136,0.4136,0.4136,0.4136,0.4136,0.2251,0.2272,0.2326,0.2404,0.2469,0.2537,0.2594,0.2729,0.2897,0.3126,0.3339,0.3582,0.3898,0.416,0.4155,0.4195,0.4062,0.4134,0.4086,0.3871,0.3686,0.4059,0.4218,0.4219,0.4219,0.422,0.422,0,0.2192,0.2223,0.2275,0.2345,0.237,0.2447,0.2556,0.26,0.2748,0.302,0.3232,0.3588,0.3802,0.3994,0.4184,0.4089,0.3842,0.4006,0.3703,0.3611,0.4054,0.3983,0.4028,0.4028,0.4028,0.4028,0.4028,0.4028,0.2153,0.217,0.2207,0.223,0.2273,0.2286,0.2331,0.2425,0.2596,0.2865,0.3099,0.3311,0.3738,0.407,0.411,0.4015,0.3692,0.3565,0.3465,0.3854,0.3862,0.3869,0.3791,0.3794,0.3794,0.2914,0.2908,0.2903]},{"header":{"parameterUnit":"m.s-1","parameterCategory":2,"la1":30.2991,"la2":30.254,"lo1":-89.0895,"lo2":-89.0444,"dy":0.0017,"dx":0.0017,"nx":28,"ny":28,"refTime":"2024-06-22T21:00:00:Z","depth":"0","parameterNumber":3,"parameterNumberName":"V-component_of_CURRENTS"},"data":[0,0,0,0,0,0,0,0,0,0,0,0,0,0,0,0,0,0,0,0,0,0,0,0,0,0,0,0,0,0,0,0,0,0,0,0,0,0,0,0,0,0,0,0,0,0,0,0,0,0,0,0,0,0,0,0,0,0,-0.0131,-0.0131,0,-0.0163,-0.0163,-0.0164,-0.0227,-0.0229,-0.023,-0.0231,-0.0241,-0.024,-0.024,0,0,0,0,0,0,0,0,0,0,0,0,0,-0.0169,-0.0168,-0.0131,-0.0131,-0.0132,-0.0163,-0.0163,-0.0164,-0.0227,-0.0229,-0.023,-0.0232,-0.0242,-0.0241,-0.024,0,0,0,0,0,0,0,0,0,0,0,0,0,-0.0172,-0.0167,-0.0131,-0.0167,-0.017,-0.0163,-0.0163,-0.0164,-0.0227,-0.0229,-0.0231,-0.0232,-0.0242,-0.0241,-0.0239,-0.0195,0,0,-0.0236,-0.0235,0,0,0,0,0,0,0,0,-0.0172,-0.0171,-0.0161,-0.0164,-0.0168,-0.0192,-0.018,-0.0173,-0.0226,-0.0206,-0.0231,-0.0233,-0.0221,-0.0222,-0.0225,-0.0196,-0.0196,-0.0235,-0.0235,-0.0234,-0.0234,0,0,0,0,0,0,0,-0.0171,-0.017,-0.0144,-0.0161,-0.0166,-0.0196,-0.0198,-0.018,-0.0203,-0.0208,-0.0212,-0.0214,-0.0223,-0.0226,-0.0226,-0.0196,-0.0235,-0.0234,-0.0234,-0.0233,-0.0166,-0.0166,0,0,0,0,0,0,-0.0162,-0.0169,-0.0143,-0.0145,-0.0174,-0.0194,-0.0196,-0.0183,-0.0204,-0.0209,-0.0213,-0.0217,-0.0227,-0.0227,-0.0226,-0.0176,-0.0234,-0.0233,-0.0232,-0.0167,-0.0166,-0.0165,0,0,0,0,0,0,-0.0162,-0.0158,-0.0142,-0.0159,-0.0159,-0.0191,-0.0176,-0.0183,-0.019,-0.0208,-0.0213,-0.0214,-0.0229,-0.0228,-0.0199,-0.0177,-0.0232,-0.0231,-0.0169,-0.0167,-0.0166,-0.0074,0,0,0,0,0,0,-0.0163,-0.0158,-0.0137,-0.0157,-0.0157,-0.0114,-0.0175,-0.0182,-0.0188,-0.0194,-0.0209,-0.0213,-0.023,-0.02,-0.0198,-0.0176,-0.023,-0.017,-0.0168,-0.0166,-0.0078,-0.007,-0.0062,0,0,0,0,0,-0.0164,-0.0113,-0.0135,-0.0132,-0.013,-0.0112,-0.0113,-0.0144,-0.0186,-0.0163,-0.0184,-0.0212,-0.0188,-0.0197,-0.0194,-0.0172,-0.0171,-0.0168,-0.0166,-0.0082,-0.0071,-0.0062,0,0,0,0,0,0,-0.0092,-0.0116,-0.014,-0.0094,-0.0098,-0.0122,-0.0096,-0.0136,-0.0136,-0.014,-0.0181,-0.0183,-0.0158,-0.0172,-0.0182,-0.0151,-0.0191,-0.0188,-0.0128,-0.0118,-0.011,-0.01,-0.0229,0,0,0,0,0,-0.0073,-0.0056,-0.0078,-0.0036,-0.0033,-0.007,-0.0067,-0.0089,-0.0098,-0.0102,-0.0125,-0.0142,-0.0144,-0.0136,-0.0138,-0.0099,-0.0141,-0.0091,-0.0083,-0.0076,-0.0067,-0.0113,-0.0109,-0.0158,-0.0158,-0.0158,0,0,-0.003,-0.0042,-0.0029,-0.0023,-0.0028,-0.0003,-0.0071,-0.0047,-0.0034,-0.0097,-0.0077,-0.0108,-0.0129,-0.01,-0.0091,-0.0107,-0.0082,-0.0073,-0.0066,-0.0062,-0.011,-0.0106,-0.0102,-0.0156,-0.0156,-0.0157,0,0,0.0061,0.0053,0.0091,0.0091,0.0088,0.0067,0.0074,0.005,0.0036,0.0055,-0.0002,-0.0017,-0.001,-0.0031,-0.0039,0.0018,-0.0042,0.0011,0.0071,0.0026,0.003,0.0032,-0.001,-0.0012,0.002,0.002,0.0021,0,0.011,0.0148,0.0112,0.0147,0.0155,0.01,0.0144,0.0135,0.0118,0.0112,0.0079,0.0045,0.0022,0.0036,0.0045,0.0037,-0.0,0.0038,0.0037,0.0038,0.0039,-0.0005,-0.0008,0.0025,0.0025,0.0024,0.0024,0,0.0215,0.0244,0.0278,0.0286,0.0297,0.0335,0.0307,0.0312,0.0271,0.0238,0.0232,0.0187,0.0161,0.0145,0.0115,0.0113,0.008,0.0048,0.0013,0.005,0.0001,-0.0004,0.0032,0.003,0.0029,0.0028,0,0,0.0316,0.0341,0.0351,0.037,0.0368,0.0391,0.0422,0.0424,0.0434,0.0392,0.0397,0.0358,0.0297,0.0282,0.0229,0.0188,0.0156,0.0128,0.0124,0.0089,0.0057,0.0047,0.0039,0.012,0.0119,0.0119,0.0021,0,0.0403,0.0487,0.047,0.0549,0.0588,0.0548,0.0577,0.0568,0.054,0.0535,0.046,0.0445,0.0362,0.0346,0.0293,0.0197,0.0146,0.0185,0.0024,0.002,0.0008,0.0035,0.006,-0.0023,0.0016,0.0015,0.0014,0,0.0498,0.0536,0.0623,0.0659,0.0674,0.0703,0.0724,0.0749,0.0721,0.0697,0.0653,0.0581,0.0523,0.044,0.0289,0.0318,0.0196,0.0107,0.01,0.0056,0.0,-0.0056,-0.0035,-0.0251,0.0005,0.0006,0.0007,0,0.0567,0.064,0.0706,0.0721,0.0756,0.0782,0.08,0.0791,0.0827,0.0795,0.0807,0.0702,0.0673,0.0509,0.0318,0.0302,0.0142,0.0096,-0.0032,-0.0035,-0.0061,-0.0065,-0.0265,-0.0025,-0.0025,-0.0025,-0.0024,0,0.0652,0.0707,0.0742,0.0779,0.0862,0.0855,0.0932,0.0932,0.095,0.1009,0.0894,0.0917,0.0687,0.0565,0.0364,0.0163,0.0172,-0.0015,-0.0057,-0.0028,-0.0027,-0.0255,-0.0359,-0.0028,-0.0027,-0.0027,-0.0026,0,0.0715,0.0739,0.0819,0.087,0.0896,0.0955,0.1036,0.1087,0.1092,0.1171,0.1168,0.1083,0.093,0.0681,0.0425,0.0249,-0.0083,-0.005,0.0002,-0.0032,-0.0335,-0.0432,-0.0662,-0.0773,-0.0191,-0.0192,-0.0193,0,0.0753,0.0799,0.0888,0.0945,0.097,0.1058,0.1119,0.1155,0.122,0.1284,0.133,0.1217,0.1171,0.0798,0.0435,0.0088,-0.0122,-0.011,-0.0138,-0.0342,-0.0483,-0.0564,-0.0646,-0.0144,-0.0144,-0.0144,-0.0145,0,0.0821,0.0845,0.0911,0.1026,0.1104,0.1211,0.1303,0.1382,0.1442,0.1523,0.1604,0.1582,0.1237,0.091,0.043,0.0188,-0.0244,-0.0123,-0.0354,-0.0471,-0.0553,-0.0681,-0.0096,-0.0146,-0.0146,-0.0146,-0.0146,-0.0146,0.0865,0.0925,0.1008,0.1118,0.1213,0.1343,0.1454,0.1564,0.171,0.1862,0.1818,0.1857,0.1373,0.0734,0.0349,-0.0284,-0.0293,-0.0458,-0.0561,-0.0628,-0.0727,-0.0136,-0.022,-0.022,-0.0221,-0.0221,-0.0221,0,0.0928,0.0994,0.1096,0.123,0.1339,0.1386,0.1563,0.1693,0.1889,0.2037,0.2127,0.1941,0.1337,0.0715,-0.0147,-0.0626,-0.0813,-0.0881,-0.1008,-0.1075,-0.0569,-0.0559,-0.0694,-0.0694,-0.0694,-0.0694,-0.0693,-0.0693,0.0968,0.1072,0.1124,0.1311,0.1408,0.1587,0.1704,0.191,0.2066,0.2287,0.2353,0.2334,0.1889,0.0304,-0.0799,-0.1062,-0.1396,-0.1462,-0.1656,-0.1324,-0.1293,-0.1263,-0.1281,-0.1566,-0.1567,-0.2114,-0.212,-0.2124]}],[{"header":{"parameterUnit":"m.s-1","parameterCategory":2,"la1":30.2991,"la2":30.254,"lo1":-89.0895,"lo2":-89.0444,"dy":0.0017,"dx":0.0017,"nx":28,"ny":28,"refTime":"2024-06-22T21:00:00:Z","depth":"2","parameterNumber":2,"parameterNumberName":"U-component_of_CURRENTS"},"data":[0,0,0,0,0,0,0,0,0,0,0,0,0,0,0,0,0,0,0,0,0,0,0,0,0,0,0,0,0,0,0,0,0,0,0,0,0,0,0,0,0,0,0,0,0,0,0,0,0,0,0,0,0,0,0,0,0,0,0.2464,0.2465,0,0.2544,0.2544,0.2545,0.2579,0.2579,0.2579,0.258,0.2671,0.2673,0.2675,0,0,0,0,0,0,0,0,0,0,0,0,0,0.2266,0.2269,0.2464,0.2466,0.2467,0.2544,0.2544,0.2545,0.2578,0.2579,0.258,0.258,0.267,0.2673,0.2675,0,0,0,0,0,0,0,0,0,0,0,0,0,0.2343,0.227,0.2464,0.2498,0.2503,0.2544,0.2544,0.2545,0.2578,0.2579,0.258,0.258,0.2669,0.2672,0.2675,0.2678,0,0,0.2684,0.2685,0,0,0,0,0,0,0,0,0.2338,0.2349,0.2492,0.2496,0.2501,0.2558,0.2508,0.2592,0.2578,0.2542,0.258,0.2581,0.2638,0.2644,0.2647,0.2683,0.2687,0.2684,0.2686,0.2688,0.2688,0,0,0,0,0,0,0,0.2333,0.2346,0.2488,0.2494,0.2499,0.2485,0.2496,0.2523,0.258,0.2545,0.255,0.257,0.264,0.2644,0.265,0.2688,0.2684,0.2687,0.2689,0.269,0.2776,0.2776,0,0,0,0,0,0,0.2341,0.2341,0.2486,0.2492,0.2428,0.2489,0.2501,0.2533,0.258,0.2589,0.2569,0.2571,0.2639,0.2646,0.2653,0.2733,0.2687,0.269,0.2692,0.2775,0.2776,0.2776,0,0,0,0,0,0,0.2337,0.2354,0.2483,0.2422,0.2439,0.2493,0.2527,0.2535,0.2557,0.2599,0.2607,0.2587,0.264,0.2649,0.2706,0.2734,0.2692,0.2694,0.2775,0.2775,0.2776,0.2845,0,0,0,0,0,0,0.2331,0.2352,0.2365,0.2424,0.2443,0.2538,0.2528,0.2536,0.2571,0.2574,0.2617,0.2625,0.2641,0.2701,0.2709,0.2737,0.2697,0.2774,0.2775,0.2776,0.2842,0.2848,0.2853,0,0,0,0,0,0.2324,0.2356,0.2366,0.2383,0.2465,0.2541,0.2549,0.2583,0.2571,0.2599,0.2623,0.2624,0.2711,0.2705,0.2713,0.2743,0.2773,0.2775,0.2776,0.284,0.2847,0.2853,0,0,0,0,0,0,0.2282,0.2364,0.2377,0.2433,0.2493,0.255,0.2576,0.2589,0.2625,0.2622,0.2645,0.2656,0.2718,0.2712,0.2704,0.2765,0.2737,0.2739,0.2782,0.2789,0.2795,0.2821,0.2699,0,0,0,0,0,0.2277,0.2323,0.2398,0.2444,0.2476,0.252,0.2548,0.2574,0.2619,0.2634,0.2663,0.2685,0.2724,0.2744,0.2776,0.2811,0.282,0.2828,0.2833,0.2838,0.2863,0.29,0.2913,0.278,0.278,0.278,0,0,0.2273,0.2326,0.235,0.2438,0.248,0.2534,0.2539,0.2597,0.2635,0.2639,0.2692,0.2718,0.274,0.2792,0.2815,0.2794,0.2877,0.284,0.2844,0.2867,0.2903,0.2916,0.2928,0.2781,0.2781,0.2781,0,0,0.2303,0.2338,0.239,0.2442,0.2519,0.2547,0.2568,0.2633,0.2659,0.2716,0.2727,0.2775,0.2817,0.2851,0.2868,0.2919,0.2914,0.291,0.2958,0.2993,0.3005,0.3016,0.3033,0.3045,0.2902,0.2902,0.2902,0,0.2297,0.2366,0.2416,0.2481,0.2521,0.2556,0.2614,0.2647,0.2717,0.2744,0.2744,0.2829,0.2852,0.2922,0.2945,0.2937,0.2946,0.2935,0.3004,0.3015,0.3025,0.3039,0.3052,0.2906,0.2905,0.2905,0.2905,0,0.2366,0.2416,0.2455,0.254,0.2591,0.2645,0.2706,0.2746,0.2767,0.2797,0.2879,0.2918,0.2971,0.2977,0.2986,0.3061,0.304,0.3018,0.2994,0.3043,0.3054,0.3066,0.2911,0.2909,0.2908,0.2908,0,0,0.2361,0.248,0.2486,0.2525,0.262,0.2665,0.2737,0.2811,0.2848,0.2908,0.2968,0.3046,0.3064,0.3086,0.3098,0.3131,0.3208,0.3109,0.3109,0.3138,0.3279,0.3278,0.329,0.3197,0.32,0.3202,0.3256,0,0.2397,0.2498,0.2554,0.2631,0.2685,0.2741,0.2802,0.2867,0.2918,0.2978,0.303,0.3093,0.3103,0.3134,0.3179,0.3209,0.3243,0.3195,0.3217,0.3218,0.3222,0.3306,0.308,0.3111,0.3267,0.3269,0.327,0,0.2432,0.2497,0.2579,0.2671,0.27,0.2747,0.2835,0.29,0.2993,0.3045,0.3125,0.3154,0.3246,0.3225,0.3328,0.3297,0.3306,0.3314,0.3315,0.3306,0.324,0.3088,0.3126,0.3289,0.3288,0.3286,0.3285,0,0.2378,0.25,0.2553,0.2588,0.2706,0.275,0.281,0.2911,0.2971,0.3088,0.3146,0.3239,0.3305,0.3344,0.3395,0.3362,0.3483,0.3425,0.343,0.3428,0.3239,0.3217,0.349,0.349,0.349,0.349,0.3489,0,0.2373,0.2419,0.2528,0.2553,0.2617,0.2719,0.2791,0.2877,0.2995,0.3069,0.3175,0.3256,0.3343,0.3414,0.3425,0.3493,0.3514,0.3476,0.3462,0.3254,0.3234,0.3386,0.3373,0.3492,0.3491,0.3491,0.349,0,0.2308,0.2382,0.2443,0.2554,0.2592,0.2634,0.2772,0.2826,0.2969,0.3076,0.312,0.3288,0.341,0.3479,0.3554,0.3548,0.3585,0.3588,0.3344,0.3303,0.3486,0.3476,0.3596,0.3596,0.3597,0.3598,0.3598,0,0.2284,0.2313,0.2406,0.2444,0.2496,0.2582,0.2641,0.279,0.2862,0.3087,0.3129,0.3302,0.3401,0.3547,0.3581,0.3624,0.3633,0.3414,0.3324,0.3534,0.3507,0.3495,0.3485,0.3078,0.3075,0.3071,0.3069,0,0.2243,0.2268,0.2324,0.2386,0.2444,0.2503,0.2606,0.264,0.2822,0.2933,0.3086,0.3182,0.3391,0.3372,0.3477,0.3453,0.3395,0.3356,0.3642,0.3108,0.3056,0.3027,0.3031,0.3041,0.3044,0.3046,0.3048,0.3049,0.2209,0.2225,0.2285,0.2338,0.2389,0.2403,0.2416,0.2532,0.2615,0.2749,0.2922,0.3025,0.3144,0.3211,0.3149,0.3126,0.3338,0.3178,0.3182,0.3191,0.3143,0.3098,0.308,0.3083,0.3085,0.3088,0.309,0,0.2151,0.2197,0.2239,0.2275,0.2263,0.2338,0.2376,0.2363,0.2402,0.2593,0.2713,0.2607,0.267,0.2771,0.2727,0.2769,0.2676,0.2637,0.2485,0.252,0.2549,0.246,0.222,0.2216,0.2212,0.2209,0,0,0.2137,0.2147,0.2154,0.2126,0.2158,0.2118,0.2104,0.2112,0.2203,0.2225,0.2301,0.2564,0.2734,0.243,0.2433,0.2316,0.2376,0.2232,0.2951,0.2811,0.2833,0.2911,0.2824,0,0,0,0,0]},{"header":{"parameterUnit":"m.s-1","parameterCategory":2,"la1":30.2991,"la2":30.254,"lo1":-89.0895,"lo2":-89.0444,"dy":0.0017,"dx":0.0017,"nx":28,"ny":28,"refTime":"2024-06-22T21:00:00:Z","depth":"2","parameterNumber":3,"parameterNumberName":"V-component_of_CURRENTS"},"data":[0,0,0,0,0,0,0,0,0,0,0,0,0,0,0,0,0,0,0,0,0,0,0,0,0,0,0,0,0,0,0,0,0,0,0,0,0,0,0,0,0,0,0,0,0,0,0,0,0,0,0,0,0,0,0,0,0,0,-0.0306,-0.0307,0,-0.0361,-0.0361,-0.0362,-0.042,-0.042,-0.0421,-0.0422,-0.0492,-0.0493,-0.0494,0,0,0,0,0,0,0,0,0,0,0,0,0,-0.0312,-0.0311,-0.0306,-0.0307,-0.0307,-0.0361,-0.0361,-0.0362,-0.042,-0.042,-0.0421,-0.0422,-0.0492,-0.0493,-0.0495,0,0,0,0,0,0,0,0,0,0,0,0,0,-0.0333,-0.0311,-0.0306,-0.0341,-0.0345,-0.036,-0.0361,-0.0363,-0.0419,-0.042,-0.0421,-0.0422,-0.0491,-0.0493,-0.0495,-0.0485,0,0,-0.05,-0.0501,0,0,0,0,0,0,0,0,-0.0332,-0.0333,-0.0336,-0.0339,-0.0343,-0.0383,-0.0389,-0.0404,-0.0419,-0.0392,-0.0422,-0.0423,-0.0456,-0.046,-0.047,-0.0489,-0.0492,-0.0501,-0.0502,-0.0502,-0.0503,0,0,0,0,0,0,0,-0.033,-0.0331,-0.0329,-0.0336,-0.0341,-0.0375,-0.0379,-0.0393,-0.0419,-0.0395,-0.0399,-0.0403,-0.0458,-0.0468,-0.0472,-0.0493,-0.0501,-0.0502,-0.0503,-0.0504,-0.0525,-0.0525,0,0,0,0,0,0,-0.0316,-0.0329,-0.0327,-0.0331,-0.0338,-0.0374,-0.0378,-0.037,-0.0418,-0.0426,-0.0402,-0.0405,-0.0464,-0.047,-0.0475,-0.0451,-0.0502,-0.0504,-0.0505,-0.0526,-0.0525,-0.0525,0,0,0,0,0,0,-0.0316,-0.0315,-0.0325,-0.0331,-0.0335,-0.0372,-0.0363,-0.0371,-0.0383,-0.0423,-0.0432,-0.0406,-0.0465,-0.0472,-0.0486,-0.0454,-0.0505,-0.0507,-0.0526,-0.0526,-0.0525,-0.0412,0,0,0,0,0,0,-0.0316,-0.0314,-0.0299,-0.033,-0.0334,-0.0341,-0.0362,-0.0371,-0.0383,-0.0388,-0.043,-0.0437,-0.0467,-0.0483,-0.0488,-0.0458,-0.0508,-0.0527,-0.0526,-0.0525,-0.0417,-0.0408,-0.04,0,0,0,0,0,-0.0316,-0.029,-0.0298,-0.0298,-0.0313,-0.0341,-0.0347,-0.0378,-0.0382,-0.0392,-0.0411,-0.0436,-0.0481,-0.0484,-0.049,-0.0459,-0.0528,-0.0526,-0.0525,-0.042,-0.0409,-0.04,0,0,0,0,0,0,-0.0264,-0.0294,-0.0304,-0.0282,-0.0313,-0.0351,-0.0348,-0.0371,-0.0392,-0.0386,-0.0427,-0.0436,-0.0438,-0.0469,-0.0471,-0.0466,-0.0509,-0.0509,-0.0427,-0.0417,-0.0409,-0.0402,-0.051,0,0,0,0,0,-0.0248,-0.0245,-0.0282,-0.0261,-0.0273,-0.0308,-0.0318,-0.0341,-0.0365,-0.0376,-0.0402,-0.0424,-0.0436,-0.0443,-0.0467,-0.0458,-0.0501,-0.0446,-0.0438,-0.043,-0.043,-0.0468,-0.0463,-0.0521,-0.0521,-0.0521,0,0,-0.0215,-0.0233,-0.0226,-0.0252,-0.027,-0.0279,-0.0317,-0.0327,-0.0321,-0.0377,-0.0369,-0.0397,-0.0431,-0.0424,-0.0427,-0.0444,-0.0436,-0.0429,-0.0421,-0.0426,-0.0466,-0.0461,-0.0455,-0.052,-0.052,-0.052,0,0,-0.0162,-0.017,-0.016,-0.0188,-0.022,-0.0245,-0.0246,-0.0283,-0.0288,-0.029,-0.0321,-0.0337,-0.0356,-0.0375,-0.0384,-0.0347,-0.0394,-0.0347,-0.029,-0.0325,-0.032,-0.0317,-0.0356,-0.0357,-0.0337,-0.0337,-0.0337,0,-0.0123,-0.0116,-0.016,-0.0166,-0.0171,-0.0226,-0.0214,-0.0228,-0.0262,-0.0254,-0.0276,-0.0297,-0.0333,-0.0316,-0.0306,-0.0326,-0.0354,-0.0317,-0.0312,-0.031,-0.0308,-0.035,-0.0352,-0.0331,-0.0332,-0.0332,-0.0333,0,-0.0086,-0.0075,-0.0069,-0.0094,-0.0106,-0.0107,-0.0137,-0.0138,-0.0146,-0.0168,-0.0159,-0.0203,-0.0217,-0.0226,-0.0252,-0.0244,-0.027,-0.0299,-0.0332,-0.0295,-0.0342,-0.0346,-0.0323,-0.0325,-0.0327,-0.0328,0,0,-0.0017,-0.0037,-0.0038,-0.0026,-0.0068,-0.0068,-0.0049,-0.0054,-0.0029,-0.0064,-0.0035,-0.0065,-0.0095,-0.011,-0.0141,-0.0174,-0.0189,-0.0219,-0.0224,-0.0247,-0.0264,-0.027,-0.0276,-0.0207,-0.0207,-0.0208,-0.0297,0,0.0024,0.0044,0.0017,0.0052,0.0066,0.0033,0.0058,0.005,0.0038,0.0046,0.0007,0.0009,-0.0045,-0.0039,-0.0077,-0.0163,-0.0197,-0.0163,-0.0306,-0.0311,-0.0311,-0.028,-0.0238,-0.0313,-0.0302,-0.0303,-0.0304,0,0.0056,0.0068,0.0112,0.0143,0.0147,0.0165,0.0199,0.0212,0.02,0.0196,0.0181,0.0131,0.0094,0.0038,-0.0081,-0.0051,-0.0146,-0.0223,-0.0229,-0.0279,-0.0325,-0.0352,-0.0322,-0.0312,-0.0311,-0.0311,-0.031,0,0.0112,0.0137,0.0184,0.0185,0.0202,0.0243,0.0264,0.0266,0.0302,0.0292,0.0308,0.0238,0.0227,0.0097,-0.0055,-0.0068,-0.0199,-0.0243,-0.034,-0.0343,-0.036,-0.0363,-0.0336,-0.0336,-0.0336,-0.0335,-0.0335,0,0.0154,0.0192,0.0225,0.0241,0.0325,0.0322,0.0402,0.041,0.0437,0.0488,0.0401,0.0425,0.0242,0.0144,-0.0019,-0.0179,-0.0172,-0.0327,-0.0362,-0.032,-0.0317,-0.0365,-0.0367,-0.0339,-0.0338,-0.0337,-0.0337,0,0.0202,0.0214,0.0271,0.0318,0.0351,0.0415,0.0501,0.0554,0.0571,0.0639,0.0644,0.0569,0.0445,0.0248,0.0034,-0.011,-0.0288,-0.035,-0.0288,-0.0313,-0.0423,-0.0418,-0.0478,-0.0479,-0.0479,-0.048,-0.048,0,0.0224,0.026,0.0329,0.0386,0.0418,0.0513,0.0584,0.0625,0.0691,0.0734,0.0779,0.0683,0.0638,0.0328,0.0042,-0.0238,-0.0278,-0.0381,-0.0407,-0.0407,-0.0435,-0.043,-0.0424,-0.0391,-0.0391,-0.0391,-0.0391,0,0.0273,0.0297,0.0346,0.0458,0.0548,0.0643,0.0755,0.0821,0.0881,0.0937,0.0992,0.0957,0.0685,0.0414,0.0041,-0.0144,-0.0336,-0.0385,-0.0398,-0.0353,-0.0331,-0.0357,-0.0354,-0.0389,-0.0389,-0.0389,-0.0389,-0.0389,0.0316,0.036,0.0432,0.0545,0.0645,0.0765,0.0862,0.0975,0.1087,0.1192,0.1151,0.1138,0.0819,0.0363,0.0016,-0.0329,-0.0323,-0.0441,-0.0439,-0.0439,-0.0404,-0.0383,-0.0445,-0.0446,-0.0446,-0.0447,-0.0447,0,0.0366,0.0425,0.0521,0.0641,0.0754,0.0813,0.097,0.1068,0.1212,0.1314,0.1368,0.1111,0.0802,0.0444,-0.0074,-0.0398,-0.042,-0.0483,-0.0448,-0.0446,-0.0446,-0.0411,-0.0455,-0.0456,-0.0457,-0.0458,0,0,0.0402,0.0484,0.0526,0.0712,0.082,0.0989,0.1089,0.1233,0.1342,0.1436,0.1461,0.1411,0.096,0.0585,0.0137,-0.016,-0.0223,-0.0207,-0.0163,-0.0065,-0.0061,-0.038,-0.0319,0,0,0,0,0]}],[{"header":{"parameterUnit":"m.s-1","parameterCategory":2,"la1":30.2991,"la2":30.254,"lo1":-89.0895,"lo2":-89.0444,"dy":0.0017,"dx":0.0017,"nx":28,"ny":28,"refTime":"2024-06-22T21:00:00:Z","depth":"4","parameterNumber":2,"parameterNumberName":"U-component_of_CURRENTS"},"data":[0,0,0,0,0,0,0,0,0,0,0,0,0,0,0,0,0,0,0,0,0,0,0,0,0,0,0,0,0,0,0,0,0,0,0,0,0,0,0,0,0,0,0,0,0,0,0,0,0,0,0,0,0,0,0,0,0,0,0.1364,0.1365,0,0.1453,0.1453,0.1454,0.1508,0.1508,0.1508,0.1509,0.1589,0.159,0.1592,0,0,0,0,0,0,0,0,0,0,0,0,0,0.1237,0.1239,0.1364,0.1365,0.1366,0.1452,0.1453,0.1454,0.1507,0.1508,0.1508,0.1509,0.1588,0.159,0.1592,0,0,0,0,0,0,0,0,0,0,0,0,0,0.1304,0.124,0.1364,0.1405,0.1409,0.1452,0.1453,0.1455,0.1507,0.1508,0.1509,0.1509,0.1587,0.159,0.1593,0.1596,0,0,0.16,0.1602,0,0,0,0,0,0,0,0,0.13,0.1308,0.1397,0.1402,0.1407,0.1471,0.1438,0.1502,0.1507,0.1468,0.1509,0.151,0.1549,0.1555,0.1568,0.1599,0.1603,0.1601,0.1602,0.1603,0.1604,0,0,0,0,0,0,0,0.1295,0.1305,0.1397,0.1399,0.1405,0.1418,0.1428,0.1451,0.1502,0.1471,0.1476,0.1489,0.1552,0.1565,0.157,0.1604,0.1601,0.1603,0.1605,0.1606,0.173,0.1732,0,0,0,0,0,0,0.1288,0.13,0.1394,0.14,0.1356,0.142,0.1431,0.1449,0.1502,0.1512,0.1488,0.1491,0.156,0.1567,0.1573,0.166,0.1603,0.1606,0.1607,0.1728,0.173,0.1732,0,0,0,0,0,0,0.1285,0.1296,0.1391,0.1353,0.1366,0.1421,0.1441,0.145,0.1497,0.1516,0.1525,0.153,0.1561,0.1569,0.1626,0.166,0.1607,0.1609,0.1726,0.1729,0.1731,0.1782,0,0,0,0,0,0,0.1281,0.1294,0.1323,0.1353,0.1368,0.1436,0.1441,0.1451,0.1503,0.1508,0.1553,0.156,0.1562,0.1622,0.1628,0.1663,0.1611,0.1724,0.1727,0.173,0.1779,0.1786,0.1793,0,0,0,0,0,0.1276,0.131,0.1324,0.1336,0.14,0.1437,0.1447,0.1486,0.1504,0.153,0.1565,0.156,0.1647,0.1625,0.1632,0.1669,0.1722,0.1726,0.173,0.1775,0.1785,0.1793,0,0,0,0,0,0,0.1275,0.132,0.1335,0.1383,0.1416,0.1448,0.1482,0.1505,0.1553,0.157,0.1583,0.1592,0.1649,0.1656,0.1632,0.1715,0.1684,0.1689,0.1715,0.1725,0.1732,0.1727,0.1613,0,0,0,0,0,0.1286,0.1324,0.1358,0.14,0.1418,0.1455,0.1484,0.151,0.1547,0.1571,0.1601,0.1636,0.1665,0.1694,0.1715,0.1767,0.1784,0.1795,0.1803,0.1809,0.1811,0.1865,0.1877,0.1745,0.1745,0.1745,0,0,0.1298,0.1329,0.1352,0.1403,0.1433,0.1464,0.1475,0.1527,0.1563,0.1571,0.164,0.1661,0.1683,0.1735,0.1763,0.1752,0.1861,0.1814,0.1819,0.1818,0.187,0.1883,0.1895,0.1748,0.1747,0.1747,0,0,0.1322,0.1366,0.1397,0.1428,0.148,0.1499,0.152,0.1569,0.1605,0.1666,0.1678,0.1724,0.1778,0.1798,0.1814,0.1878,0.189,0.1892,0.1937,0.199,0.2001,0.201,0.2068,0.2082,0.1905,0.1905,0.1905,0,0.1335,0.1381,0.1413,0.1446,0.1479,0.1516,0.1552,0.159,0.1654,0.1688,0.1698,0.1787,0.1804,0.1864,0.1887,0.1894,0.193,0.1899,0.1999,0.2009,0.2018,0.2074,0.2089,0.1908,0.1907,0.1907,0.1907,0,0.137,0.1417,0.1439,0.149,0.1527,0.1571,0.1615,0.1666,0.1713,0.1746,0.1826,0.1858,0.1914,0.1927,0.1928,0.2006,0.2013,0.1993,0.1973,0.2034,0.209,0.2105,0.1912,0.1911,0.191,0.1909,0,0,0.1365,0.1447,0.1459,0.149,0.156,0.1589,0.1657,0.172,0.1774,0.1837,0.1909,0.196,0.1989,0.2009,0.2025,0.2069,0.2168,0.2069,0.2071,0.2121,0.2305,0.2185,0.219,0.2174,0.2176,0.2178,0.2324,0,0.1384,0.1449,0.149,0.1555,0.1588,0.1648,0.1705,0.1771,0.1832,0.1909,0.1959,0.203,0.2018,0.2065,0.2108,0.2154,0.2208,0.2131,0.2242,0.2245,0.2126,0.2202,0.2186,0.2335,0.2338,0.2341,0.2343,0,0.1399,0.1443,0.1509,0.1592,0.1614,0.1663,0.1764,0.1822,0.1924,0.1977,0.2056,0.21,0.2193,0.2165,0.2289,0.2248,0.2285,0.2308,0.2314,0.219,0.2152,0.2258,0.237,0.2368,0.2366,0.2364,0.2362,0,0.1368,0.1455,0.1511,0.1541,0.1636,0.1691,0.1751,0.185,0.1911,0.2034,0.2101,0.2197,0.2282,0.2335,0.2403,0.2365,0.2527,0.2477,0.2403,0.2396,0.2436,0.2424,0.2556,0.2556,0.2556,0.2555,0.2555,0,0.1361,0.1405,0.1509,0.1538,0.1612,0.1688,0.178,0.1851,0.1968,0.2046,0.2143,0.2225,0.2332,0.2434,0.2455,0.2491,0.2582,0.2425,0.2426,0.2458,0.2446,0.2448,0.2434,0.2561,0.256,0.2559,0.2558,0,0.1309,0.1381,0.1445,0.1559,0.1599,0.1653,0.1788,0.1845,0.1975,0.2086,0.2139,0.2295,0.2428,0.252,0.2632,0.2564,0.2599,0.2585,0.2649,0.2649,0.2419,0.2406,0.2507,0.2504,0.2501,0.2499,0.2497,0,0.1285,0.1316,0.1442,0.1482,0.1538,0.1634,0.1694,0.183,0.1893,0.211,0.2152,0.2345,0.2436,0.2506,0.2598,0.2655,0.2615,0.2612,0.2466,0.2424,0.2416,0.2406,0.2397,0.2493,0.2493,0.2492,0.2491,0,0.1228,0.1288,0.1339,0.1425,0.1496,0.1565,0.167,0.1706,0.1871,0.2014,0.2123,0.2205,0.2359,0.2438,0.2518,0.2537,0.2593,0.2584,0.2587,0.245,0.2408,0.2401,0.2395,0.2482,0.2484,0.2484,0.2485,0,0.1184,0.1205,0.1287,0.1345,0.1428,0.1471,0.1539,0.1627,0.1712,0.194,0.1981,0.2179,0.2342,0.2383,0.245,0.2474,0.2418,0.2305,0.2321,0.2332,0.2205,0.2122,0.2125,0,0,0,0,0,0.113,0.1145,0.1198,0.1257,0.1333,0.1387,0.1507,0.158,0.1746,0.1775,0.1871,0.2,0.2116,0.2215,0.2207,0.2377,0.2426,0.2356,0.2303,0.2433,0.2444,0.2309,0,0,0,0,0,0,0.1094,0.1141,0.1163,0.1169,0.1192,0.1268,0.1339,0.1453,0.1478,0.1657,0.1733,0.1876,0.202,0.2108,0.2169,0.22,0.2125,0.2479,0.2474,0.2428,0.2437,0.2445,0.231,0,0,0,0,0]},{"header":{"parameterUnit":"m.s-1","parameterCategory":2,"la1":30.2991,"la2":30.254,"lo1":-89.0895,"lo2":-89.0444,"dy":0.0017,"dx":0.0017,"nx":28,"ny":28,"refTime":"2024-06-22T21:00:00:Z","depth":"4","parameterNumber":3,"parameterNumberName":"V-component_of_CURRENTS"},"data":[0,0,0,0,0,0,0,0,0,0,0,0,0,0,0,0,0,0,0,0,0,0,0,0,0,0,0,0,0,0,0,0,0,0,0,0,0,0,0,0,0,0,0,0,0,0,0,0,0,0,0,0,0,0,0,0,0,0,-0.002,-0.0021,0,-0.0103,-0.0104,-0.0104,-0.0131,-0.013,-0.013,-0.013,-0.022,-0.0222,-0.0225,0,0,0,0,0,0,0,0,0,0,0,0,0,0.0125,0.0122,-0.0019,-0.0021,-0.0022,-0.0103,-0.0104,-0.0105,-0.0131,-0.013,-0.013,-0.013,-0.0219,-0.0222,-0.0225,0,0,0,0,0,0,0,0,0,0,0,0,0,0.0055,0.0122,-0.0019,-0.0046,-0.0049,-0.0102,-0.0104,-0.0105,-0.0131,-0.013,-0.013,-0.013,-0.0218,-0.0222,-0.0225,-0.0258,0,0,-0.0237,-0.0239,0,0,0,0,0,0,0,0,0.0059,0.005,-0.0041,-0.0044,-0.0048,-0.0107,-0.0086,-0.0157,-0.0131,-0.0098,-0.013,-0.0129,-0.0184,-0.0191,-0.0205,-0.0262,-0.0266,-0.0238,-0.024,-0.0242,-0.0243,0,0,0,0,0,0,0,0.0064,0.0054,-0.0051,-0.0042,-0.0046,-0.0051,-0.006,-0.0099,-0.0141,-0.0101,-0.0103,-0.0115,-0.0186,-0.0201,-0.0207,-0.0267,-0.0238,-0.0241,-0.0244,-0.0245,-0.0348,-0.0349,0,0,0,0,0,0,0.007,0.0058,-0.0048,-0.0054,0.0006,-0.0054,-0.0064,-0.0087,-0.0141,-0.0149,-0.0115,-0.0116,-0.0195,-0.0203,-0.0211,-0.0244,-0.0242,-0.0246,-0.0248,-0.0348,-0.0349,-0.0349,0,0,0,0,0,0,0.0073,0.0061,-0.0045,0.0,-0.0014,-0.0057,-0.0083,-0.0089,-0.0109,-0.0152,-0.016,-0.0128,-0.0195,-0.0205,-0.0244,-0.0248,-0.0247,-0.0251,-0.0348,-0.0348,-0.0349,-0.0315,0,0,0,0,0,0,0.0078,0.0062,0.0047,-0.0,-0.0016,-0.0076,-0.0083,-0.0091,-0.0117,-0.0119,-0.0166,-0.0173,-0.0195,-0.0238,-0.0248,-0.0253,-0.0254,-0.0347,-0.0348,-0.0349,-0.0316,-0.0315,-0.0314,0,0,0,0,0,0.0083,0.0055,0.0046,0.0033,-0.0037,-0.0077,-0.0086,-0.0113,-0.0118,-0.0128,-0.0156,-0.0172,-0.0249,-0.0241,-0.0253,-0.026,-0.0347,-0.0348,-0.0349,-0.0317,-0.0315,-0.0314,0,0,0,0,0,0,0.0095,0.0048,0.0038,-0.0007,-0.0037,-0.0082,-0.0098,-0.0116,-0.0147,-0.0149,-0.0183,-0.0193,-0.0225,-0.0251,-0.0242,-0.0291,-0.0299,-0.0302,-0.0271,-0.027,-0.0268,-0.0247,-0.0257,0,0,0,0,0,0.0094,0.0068,0.0025,-0.0011,-0.0022,-0.0059,-0.0079,-0.0097,-0.0132,-0.0145,-0.0176,-0.0209,-0.0239,-0.026,-0.029,-0.0325,-0.0339,-0.0336,-0.0334,-0.0333,-0.0324,-0.0349,-0.0348,-0.0352,-0.0352,-0.0352,0,0,0.0087,0.0058,0.0041,-0.0008,-0.0031,-0.0047,-0.007,-0.0101,-0.0111,-0.0151,-0.0176,-0.0208,-0.0246,-0.0277,-0.0294,-0.0299,-0.0341,-0.0334,-0.0333,-0.0324,-0.0349,-0.0349,-0.0348,-0.0352,-0.0352,-0.0352,0,0,0.0074,0.0039,0.0025,0.0006,-0.0028,-0.0048,-0.0055,-0.0097,-0.011,-0.0144,-0.0167,-0.0199,-0.0254,-0.0274,-0.0293,-0.0307,-0.0331,-0.0322,-0.0304,-0.0328,-0.0327,-0.0327,-0.0347,-0.0348,-0.0324,-0.0324,-0.0324,0,0.007,0.0045,0.0014,0.0002,-0.0007,-0.0044,-0.0049,-0.0073,-0.0121,-0.013,-0.0146,-0.0212,-0.0248,-0.0274,-0.0279,-0.0303,-0.032,-0.0304,-0.0325,-0.0325,-0.0325,-0.0345,-0.0348,-0.0323,-0.0323,-0.0323,-0.0323,0,0.0058,0.0042,0.0031,0.0013,-0.0002,-0.0018,-0.0043,-0.006,-0.0082,-0.0106,-0.0139,-0.0188,-0.0222,-0.0244,-0.0269,-0.0289,-0.0302,-0.0316,-0.0323,-0.0322,-0.0344,-0.0347,-0.0321,-0.0321,-0.0322,-0.0322,0,0,0.0044,0.0029,0.0027,0.0038,0.0007,-0.0002,-0.0015,-0.0034,-0.0033,-0.0085,-0.0087,-0.0151,-0.0176,-0.0199,-0.0235,-0.0263,-0.0287,-0.029,-0.0292,-0.03,-0.0339,-0.0333,-0.0336,-0.0307,-0.0307,-0.0307,-0.0353,0,0.005,0.0047,0.0035,0.0044,0.0048,0.0028,0.0026,0.0004,-0.0022,-0.0035,-0.0085,-0.0106,-0.0159,-0.0171,-0.021,-0.0263,-0.0293,-0.0273,-0.0346,-0.0348,-0.0335,-0.0338,-0.0308,-0.0356,-0.0356,-0.0357,-0.0357,0,0.0049,0.0053,0.0066,0.0083,0.0085,0.0085,0.009,0.0082,0.0052,0.0033,-0.0004,-0.0042,-0.009,-0.0128,-0.0223,-0.0208,-0.0269,-0.0315,-0.0318,-0.0323,-0.0347,-0.0359,-0.0363,-0.0362,-0.0362,-0.0362,-0.0361,0,0.0074,0.0079,0.0099,0.0101,0.0107,0.0118,0.012,0.01,0.0112,0.008,0.0087,0.0012,-0.0004,-0.0097,-0.02,-0.0212,-0.0296,-0.0325,-0.0377,-0.0377,-0.0383,-0.0383,-0.0386,-0.0386,-0.0386,-0.0386,-0.0386,0,0.0088,0.0106,0.0117,0.0129,0.017,0.0156,0.0188,0.0179,0.0178,0.0207,0.0129,0.0139,0.0004,-0.0062,-0.0173,-0.0278,-0.0279,-0.0368,-0.0387,-0.0369,-0.0367,-0.0385,-0.0384,-0.0387,-0.0387,-0.0387,-0.0386,0,0.0111,0.0113,0.0146,0.0167,0.0183,0.0211,0.025,0.0272,0.0261,0.03,0.03,0.0239,0.0151,0.0013,-0.0127,-0.0224,-0.0338,-0.0375,-0.0334,-0.0351,-0.0411,-0.0408,-0.044,-0.044,-0.044,-0.044,-0.044,0,0.0122,0.0139,0.0184,0.0216,0.0231,0.0272,0.0308,0.0314,0.0349,0.0368,0.0401,0.0333,0.0273,0.0095,-0.0077,-0.0285,-0.032,-0.0386,-0.0415,-0.04,-0.0416,-0.0413,-0.041,-0.044,-0.044,-0.044,-0.044,0,0.0151,0.0166,0.0197,0.0264,0.0312,0.0372,0.0424,0.0462,0.0485,0.048,0.0505,0.0403,0.0308,0.0129,-0.0032,-0.0187,-0.0351,-0.0388,-0.039,-0.0418,-0.0401,-0.0416,-0.0413,-0.0441,-0.0441,-0.0441,-0.0441,0,0.0177,0.0206,0.0249,0.0313,0.0382,0.0459,0.0478,0.0533,0.0569,0.059,0.0598,0.0481,0.0407,0.0181,0.0032,-0.0122,-0.0175,-0.0239,-0.025,-0.0252,-0.0196,-0.0148,-0.0119,0,0,0,0,0,0.0199,0.0236,0.0296,0.0371,0.0442,0.0486,0.0559,0.0572,0.0602,0.0641,0.0625,0.0539,0.0329,0.0232,0.0084,-0.0004,-0.0227,-0.0189,-0.0311,-0.0443,-0.0443,-0.0411,0,0,0,0,0,0,0.0213,0.0267,0.03,0.0413,0.0474,0.0561,0.061,0.0629,0.0649,0.0655,0.0554,0.0495,0.0291,0.0427,0.0084,0.0033,-0.0069,-0.0291,-0.0295,-0.0443,-0.0443,-0.0442,-0.041,0,0,0,0,0]}]]